Location: Olmeneta
(45.2333°N, 10.0167°E)
Time: 06:10:05
(UTC+00:00)

Cosmos 968 Rocket - Pass Details

Date: 03 March 2021
Orbit: 740 x 771 km, 74.0° (Epoch: 10 April)

Event Time Altitude Azimuth Distance (km) Brightness Sun altitude
Rises 17:48:53 0° 338° (NNW) 3,249 7.0 -7.6°
Reaches altitude 10° 17:51:16 10° 339° (NNW) 2,321 6.3 -8.1°
Maximum altitude 17:56:33 88° 71° (ENE) 778 3.5 -9.0°
Drops below altitude 10° 18:01:49 10° 160° (SSE) 2,308 5.8 -9.9°
Sets 18:04:11 0° 160° (SSE) 3,229 6.5 -10.3°
